Flag for U.S.A. Weather past 2 weeks in Grand Junction, Colorado, U.S.A.

Now
49 °F

Light rain. Mostly cloudy.


Feels Like: 44 °F
Forecast: 51 / 69 °F
Wind: 13 mph from East

Location: Walker Field

Current Time: May 22, 2015 at 4:27:07 AM

Latest Report: May 22, 2015 at 3:53 AM


Visibility: 10 mi

Pressure: 29.83 "Hg

Humidity: 86%

Dew point: 45 °F

Location of Grand JunctionLocation

Historic Weather in Grand Junction — Graph

°F

Grand Junction temperature yesterday

Maximum temperature yesterday: 70 °F (at 1:53 PM)
Minimum temperature yesterday: 47 °F (at 1:53 AM)
Average temperature yesterday: 58 °F

Past Weeks' High & Low Weather Summary

 TemperatureHumidityPressure
High77 °F (May 12, 3:53 PM)100% (May 9, 1:53 AM)30.15 "Hg (May 9, 1:53 AM)
Low36 °F (May 11, 5:53 AM)15% (May 12, 12:53 PM)29.62 "Hg (May 7, 4:53 PM)
Average55 °F59%29.84 "Hg
* Reported May 7 2:53 AM — May 22 2:53 AM, Grand Junction, Weather by CustomWeather, © 2015

Note: Actual official high and low records may vary slightly from our data, if they occured in-between our weather recording intervals... More about our weather records

Advertising

Grand Junction weather history for previous 24 hours

 ConditionsComfort  
Time TempWeatherWind HumidityBarometerVisibility
2:53 AM
Fri, May 22
49 °FLight rain. Overcast.18 mph86%29.83 "Hg7 mi
1:53 AM52 °FMostly cloudy.22 mph75%29.80 "Hg10 mi
12:53 AM54 °FMostly cloudy.12 mph67%29.77 "Hg10 mi
11:53 PM
Thu, May 21
54 °FPassing clouds.21 mph69%29.78 "Hg10 mi
10:53 PM57 °FOvercast.16 mph55%29.79 "Hg10 mi
9:53 PM55 °FPassing clouds.No wind64%29.76 "Hg10 mi
8:53 PM56 °FPartly sunny.6 mph65%29.76 "Hg10 mi
7:53 PM58 °FOvercast.No wind58%29.78 "Hg10 mi
6:53 PM63 °FPassing clouds.5 mph43%29.77 "Hg10 mi
5:53 PM64 °FScattered clouds.13 mph41%29.77 "Hg10 mi
4:53 PM65 °FPartly sunny.3 mph37%29.75 "Hg10 mi
3:53 PM70 °FSunny.7 mph27%29.76 "Hg10 mi
2:53 PM70 °FScattered clouds.22 mph30%29.78 "Hg10 mi
1:53 PM70 °FSunny.9 mph30%29.81 "Hg10 mi
12:53 PM69 °FPassing clouds.6 mph31%29.82 "Hg10 mi
11:53 AM63 °FSunny.9 mph45%29.86 "Hg10 mi
10:53 AM60 °FSunny.10 mph47%29.89 "Hg10 mi
9:53 AM56 °FSunny.9 mph55%29.92 "Hg10 mi
8:53 AM55 °FSunny.8 mph55%29.92 "Hg10 mi
7:53 AM54 °FScattered clouds.8 mph59%29.90 "Hg10 mi
6:53 AM53 °FClear.10 mph56%29.89 "Hg10 mi
5:53 AM49 °FClear.9 mph71%29.88 "Hg10 mi
4:53 AM48 °FClear.3 mph74%29.88 "Hg10 mi
Weather by CustomWeather, © 2015

See weather overviewHow to use our weather pages